Weather History for Dublin, Ireland

Change the Weather History Date:

Sunday, February 10, 2013

  Actual Average Record
Temperature  
Mean Temperature 42 °F -  
Max Temperature 44 °F 47 °F 55 °F (2001)
Min Temperature 39 °F 37 °F 26 °F (2006)
Degree Days  
Heating Degree Days 24    
Moisture  
Dew Point 41 °F    
Average Humidity 96    
Maximum Humidity 100    
Minimum Humidity 87    
Precipitation  
Precipitation 0.35 in 0.07 in - ()
Sea Level Pressure  
Sea Level Pressure 29.34 in    
Wind  
Wind Speed 9 mph ()    
Max Wind Speed 16 mph    
Max Gust Speed -    
Visibility 4.6 miles    
Events Rain    
Averages and records for this station are not official NWS values.
T = Trace of Precipitation, MM = Missing Value Source: Averaged Metar Reports

Daily Weather History Graph

Daily Weather History Graph

Search for Another Location

Airport:

Trip Planner

Search our weather history database for the weather conditions in past years. The results will help you decide how hot, cold, wet, or windy it might be!

Date:

Astronomy

Feb. 10, 2013 Rise Set
Actual Time 7:53 AM GMT 5:26 PM GMT
Civil Twilight 7:16 AM GMT 6:03 PM GMT
Nautical Twilight 6:35 AM GMT 6:44 PM GMT
Astronomical Twilight 5:55 AM GMT 7:24 PM GMT
Moon 7:25 AM GMT (2/10) 6:14 PM GMT (2/10)
Length of Visible Light 10h 46m
Length of Day
9h 32m
New Moon, 0% of the Moon is Illuminated
Feb 10
New Moon
Feb 17
First Quarter
Feb 25
Full
Mar 4
Last Quarter
Mar 11
New

Hourly Weather History & Observations

Time (GMT) Temp. Windchill Dew Point Humidity Pressure Visibility Wind Dir Wind Speed Gust Speed Precip Events Conditions
12:00 AM 42 °F - 41 °F 94% 29.70 in 7 mi ESE 6.7 mph - - Rain Light Rain
12:00 AM 42.8 °F 39.3 °F 41.0 °F 93% 29.68 in 6.2 mi SE 5.8 mph - N/A Rain Light Rain
12:30 AM 42.8 °F 38.6 °F 41.0 °F 93% 29.65 in 6.2 mi ESE 6.9 mph - N/A Rain Light Rain
1:00 AM 42.8 °F 39.3 °F 41.0 °F 93% 29.65 in 5.0 mi SE 5.8 mph - N/A Rain Light Rain
1:30 AM 42.8 °F 37.5 °F 41.0 °F 93% 29.62 in 3.7 mi SE 9.2 mph - N/A Rain Light Rain
2:00 AM 42.8 °F 37.5 °F 42.8 °F 100% 29.59 in 4.3 mi SE 9.2 mph - N/A Rain Light Rain
2:30 AM 42.8 °F 37.5 °F 42.8 °F 100% 29.56 in 3.1 mi SE 9.2 mph - N/A Rain Light Rain
3:00 AM 42.8 °F 37.0 °F 42.8 °F 100% 29.53 in 1.9 mi SE 10.4 mph - N/A Rain Rain
3:30 AM 44.6 °F 39.7 °F 42.8 °F 93% 29.53 in 1.2 mi SE 9.2 mph - N/A Rain Rain
4:00 AM 44.6 °F 38.1 °F 44.6 °F 100% 29.50 in 1.6 mi SE 13.8 mph - N/A Rain Rain
4:30 AM 44.6 °F 38.1 °F 44.6 °F 100% 29.47 in 2.5 mi SE 13.8 mph - N/A Rain Light Rain
5:00 AM 44.6 °F 37.8 °F 44.6 °F 100% 29.44 in 1.9 mi SE 15.0 mph - N/A Rain Light Rain
5:30 AM 44.6 °F 37.4 °F 44.6 °F 100% 29.42 in 3.1 mi SE 16.1 mph - N/A Rain Light Rain
6:00 AM 44 °F - 44 °F 98% 29.42 in 4 mi SE 13.4 mph - - Rain Light Rain
6:00 AM 44.6 °F 38.1 °F 44.6 °F 100% 29.42 in 3.7 mi SE 13.8 mph - N/A Rain Light Rain
6:30 AM 44.6 °F 38.8 °F 44.6 °F 100% 29.39 in 3.7 mi SE 11.5 mph - N/A Rain Light Rain
7:00 AM 44.6 °F 39.2 °F 44.6 °F 100% 29.39 in 3.7 mi SSE 10.4 mph - N/A Rain Light Rain
7:30 AM 44.6 °F 40.2 °F 44.6 °F 100% 29.36 in 4.3 mi SSE 8.1 mph - N/A Rain Light Rain
8:00 AM 44.6 °F 39.2 °F 42.8 °F 93% 29.36 in 4.3 mi SE 10.4 mph - N/A Rain Light Rain
8:30 AM 44.6 °F 39.2 °F 42.8 °F 93% 29.33 in 3.1 mi SE 10.4 mph - N/A Rain Light Rain
9:00 AM 44.6 °F 40.7 °F 42.8 °F 93% 29.33 in 1.9 mi SE 6.9 mph - N/A Rain Light Rain
9:30 AM 44.6 °F - 44.6 °F 100% 29.33 in 1.2 mi South 2.3 mph - N/A   Light Drizzle
10:00 AM 44.6 °F 40.7 °F 44.6 °F 100% 29.30 in 2.2 mi West 6.9 mph - N/A   Heavy Drizzle
10:30 AM 44.6 °F 38.4 °F 42.8 °F 93% 29.30 in 1.6 mi West 12.7 mph - N/A Rain Rain
11:00 AM 42.8 °F 36.2 °F 42.8 °F 100% 29.30 in 4.3 mi West 12.7 mph - N/A   Light Drizzle
11:30 AM 42.8 °F 35.1 °F 41.0 °F 93% 29.27 in 4.3 mi WNW 16.1 mph - N/A   Light Drizzle
12:00 PM 43 °F - 41 °F 92% 29.29 in 4 mi WNW 13.4 mph - - Rain Light Rain
12:00 PM 42.8 °F 35.8 °F 41.0 °F 93% 29.27 in 4.3 mi WNW 13.8 mph - N/A Rain Light Rain
12:30 PM 42.8 °F 35.8 °F 41.0 °F 93% 29.27 in 5.6 mi WNW 13.8 mph - N/A Rain Light Rain
1:00 PM 42.8 °F 36.6 °F 41.0 °F 93% 29.24 in 5.6 mi WNW 11.5 mph - N/A Rain Light Rain
1:30 PM 42.8 °F 36.2 °F 41.0 °F 93% 29.24 in 4.3 mi WNW 12.7 mph - N/A Rain Light Rain
2:00 PM 42.8 °F 36.2 °F 41.0 °F 93% 29.24 in 4.3 mi WNW 12.7 mph - N/A Rain Light Rain
2:30 PM 42.8 °F 35.4 °F 39.2 °F 87% 29.24 in 4.3 mi NW 15.0 mph - N/A Rain Light Rain
3:00 PM 41.0 °F 35.8 °F 39.2 °F 93% 29.24 in 5.6 mi NW 8.1 mph - N/A Rain Light Rain
3:30 PM 41.0 °F 33.5 °F 39.2 °F 93% 29.21 in 6.2 mi WNW 13.8 mph - N/A Rain Light Rain
4:00 PM 41.0 °F 33.5 °F 39.2 °F 93% 29.21 in 6.2 mi NW 13.8 mph - N/A Rain Light Rain
4:30 PM 41.0 °F 33.5 °F 39.2 °F 93% 29.21 in 6.2 mi WNW 13.8 mph - N/A Rain Light Rain
5:00 PM 41.0 °F 33.1 °F 37.4 °F 87% 29.21 in 6.2 mi WNW 15.0 mph - N/A Rain Light Rain
5:30 PM 41.0 °F 33.5 °F 37.4 °F 87% 29.21 in 6.2 mi WNW 13.8 mph - N/A Rain Light Rain
6:00 PM 40 °F - 38 °F 90% 29.21 in 7 mi WNW 15.7 mph - - Rain Light Rain
6:00 PM 41.0 °F 33.1 °F 37.4 °F 87% 29.18 in 6.2 mi WNW 15.0 mph - N/A Rain Light Rain
6:30 PM 39.2 °F 31.2 °F 37.4 °F 93% 29.18 in 6.2 mi WNW 13.8 mph - N/A Rain Light Rain
7:00 PM 41.0 °F 35.2 °F 39.2 °F 93% 29.18 in 6.2 mi NW 9.2 mph - N/A Rain Light Rain
7:30 PM 41.0 °F 36.4 °F 39.2 °F 93% 29.21 in 6.2 mi North 6.9 mph - N/A Rain Light Rain
8:00 PM 41.0 °F 36.4 °F 41.0 °F 100% 29.21 in 6.2 mi NNW 6.9 mph - N/A Rain Light Rain
8:30 PM 39.2 °F 33.6 °F 39.2 °F 100% 29.21 in 6.2 mi NNW 8.1 mph - N/A Rain Light Rain
9:00 PM 39.2 °F 35.0 °F 39.2 °F 100% 29.21 in 6.2 mi WNW 5.8 mph - N/A Rain Light Rain
9:30 PM 39.2 °F 35.0 °F 39.2 °F 100% 29.21 in 6.2 mi NW 5.8 mph - N/A Rain Light Rain
10:00 PM 39.2 °F 33.6 °F 39.2 °F 100% 29.21 in 6.2 mi WNW 8.1 mph - N/A Rain Light Rain
10:30 PM 39.2 °F 34.2 °F 39.2 °F 100% 29.21 in 6.2 mi NNW 6.9 mph - N/A Rain Light Rain
11:00 PM 39.2 °F 35.9 °F 39.2 °F 100% 29.21 in 6.2 mi NNW 4.6 mph - N/A Rain Light Rain
11:30 PM 39.2 °F 35.0 °F 39.2 °F 100% 29.24 in 6.2 mi NNW 5.8 mph - N/A Rain Light Rain